weather.gov     
National Weather Service

Terminal Aerodrome Forecast
NWS Homepage
This page is being discontinued on March 12, 2014.
The same data is available at this site. Please update your bookmarks.
Thank you, and we apologize for the inconvenience.
Please send an email to SR-SRH.Webmaster@noaa.gov with any concerns.


Current Version
Previous Version:    01  02  03  04  05  06  07  08  09  10  11  12  13  14  15  16  17  18  19  20  21  22  23  24  25  26  27  28  29  30  
   31  32  33  34  35  36  37  
[Printable]
334
FTUS42 KCHS 210300 AAA
TAFSAV
TAF AMD
KSAV 210319Z 2103/2124 03008KT P6SM SCT004 OVC008
      TEMPO 2103/2107 5SM -RA BR OVC004
     FM210700 02007KT 3SM -RA BR OVC004
      TEMPO 2108/2112 1SM -RA BR OVC003
     FM211430 02007KT P6SM SCT005 OVC010
     FM211800 02008KT 6SM -RA SCT006 OVC012=


U.S. Dept. of Commerce
NOAA National Weather Service
1325 East West Highway
Silver Spring, MD 20910
E-mail: w-nws.webmaster@noaa.gov
Page last modified: May 16, 2007
NATIONAL WEATHER SERVICE: for Safety, for Work, for Fun - FOR LIFE